Flag for Canada Weather past 2 weeks in Moncton, New Brunswick, Canada

Now
66 °F

Passing clouds.


Feels Like: 66 °F
Forecast: 51 / 63 °F
Wind: 16 mph from Northwest

Location: Moncton

Current Time: May 5, 2015 at 5:34:15 PM

Latest Report: May 5, 2015 at 5:00 PM


Visibility: 15 mi

Pressure: 29.98 "Hg

Humidity: 19%

Dew point: 23 °F

Location of MonctonLocation

Historic Weather in Moncton — Graph

°F

Moncton temperature yesterday

Maximum temperature yesterday: 77 °F (at 4:00 PM)
Minimum temperature yesterday: 32 °F (at 6:00 AM)
Average temperature yesterday: 52 °F

Past Weeks' High & Low Weather Summary

 TemperatureHumidityPressure
High77 °F (May 4, 4:00 PM)100% (Apr 22, 4:00 AM)30.31 "Hg (Apr 22, 4:00 AM)
Low25 °F (Apr 26, 5:00 AM)24% (May 5, 3:00 PM)29.32 "Hg (Apr 28, 5:00 PM)
Average39 °F84%29.77 "Hg
* Reported Apr 20 4:00 PM — May 5 4:00 PM, Moncton, Weather by CustomWeather, © 2015

Note: Actual official high and low records may vary slightly from our data, if they occured in-between our weather recording intervals... More about our weather records

Advertising

Moncton weather history for previous 24 hours

 ConditionsComfort  
Time TempWeatherWind HumidityBarometerVisibility
4:00 PM
Tue, May 5
66 °FPassing clouds.15 mph24%29.98 "Hg15 mi
3:00 PM66 °FPassing clouds.22 mph24%29.99 "Hg15 mi
2:00 PM64 °FPassing clouds.17 mph34%29.98 "Hg15 mi
1:00 PM63 °FScattered clouds.24 mph32%29.98 "Hg15 mi
12:00 PM63 °FPartly sunny.22 mph37%29.98 "Hg15 mi
11:00 AM63 °FPartly sunny.25 mph39%29.96 "Hg15 mi
10:00 AM63 °FPartly sunny.26 mph49%29.93 "Hg15 mi
9:00 AM59 °FScattered clouds.12 mph68%29.93 "Hg15 mi
8:00 AM55 °FBroken clouds.12 mph67%29.91 "Hg15 mi
7:00 AM55 °FSprinkles. Cloudy.13 mph67%29.89 "Hg15 mi
6:00 AM54 °FSprinkles. Passing clouds.7 mph72%29.87 "Hg15 mi
5:00 AM54 °FPassing clouds.14 mph67%29.84 "Hg15 mi
4:00 AM54 °FPassing clouds.9 mph67%29.85 "Hg15 mi
3:00 AM55 °FPassing clouds.13 mph63%29.87 "Hg15 mi
2:00 AM52 °FPartly cloudy.7 mph67%29.88 "Hg15 mi
1:00 AM54 °FPassing clouds.8 mph67%29.91 "Hg15 mi
12:00 AM54 °FPartly cloudy.10 mph67%29.94 "Hg15 mi
11:00 PM
Mon, May 4
55 °FPassing clouds.14 mph59%29.97 "Hg15 mi
10:00 PM57 °FPassing clouds.10 mph55%29.99 "Hg15 mi
9:00 PM61 °FScattered clouds.13 mph48%29.99 "Hg15 mi
8:00 PM64 °FScattered clouds.15 mph46%29.98 "Hg15 mi
7:00 PM70 °FPartly sunny.15 mph38%29.98 "Hg15 mi
6:00 PM72 °FPassing clouds.18 mph36%29.99 "Hg15 mi
5:00 PM75 °FPassing clouds.17 mph31%30.00 "Hg15 mi
Weather by CustomWeather, © 2015

See weather overviewHow to use our weather pages